RH
14 28 43 54 60 68 70 68 68 75 71 64 66 66 70 72 67 75 81 78 76 62 64 71 73 71 76 77 80 80 74 77 74
11 12 21 41 58 65 69 70 74 78 78 72 73 83 78 77 71 68 69 75 75 66 64 60 63 68 71 76 80 81 81 80 84
13 14 16 27 46 64 66 74 82 83 81 75 73 80 83 87 81 78 75 54 66 74 70 67 65 58 60 68 74 79 86 88 82
16 21 18 27 68 75 76 76 87 87 80 74 75 87 85 82 84 80 78 58 52 67 76 78 78 73 68 62 61 70 75 79 87
18 18 56 91 91 75 80 83 85 94 87 78 75 86 87 84 85 82 77 77 81 61 72 78 77 78 81 81 77 72 73 74 78
24 28 33 43 94 99 98 97 90 99 94 84 80 84 82 82 80 82 80 77 82 72 74 80 80 80 82 81 81 83 83 84 86
28 30 39 44 38 72 77 98 95 96 96 92 95 90 82 84 77 80 85 84 89 79 76 82 81 81 81 78 80 83 85 88 88
36 35 38 45 49 48 48 76 95 98 99 88 89 85 80 78 75 77 82 83 90 86 76 74 77 80 86 81 86 88 86 87 78
42 44 45 47 46 49 58 55 70 97 99 94 88 85 82 78 78 71 80 83 91 89 86 80 82 87 89 85 93 81 77 75 71
44 46 48 51 58 63 78 86 86 96 97 95 92 86 85 79 79 76 75 83 93 94 89 90 90 93 94 98 96 90 82 76 73
44 49 52 57 64 66 71 66 98 99 98 95 97 92 89 87 86 87 88 85 94 99 97 96 93 97 94 97 95 92 88 83 80
44 51 58 63 69 74 74 77 75 75 84 99 100 97 90 90 91 93 92 88 92 98 100 100 96 93 94 92 92 85 86 80 77
46 50 55 62 64 69 66 66 66 67 77 82 83 81 96 97 96 95 96 90 96 97 99 99 99 92 91 92 89 82 82 90 84
47 48 49 52 56 59 61 62 53 58 66 69 77 87 92 90 86 85 84 84 85 88 88 98 92 97 92 84 86 90 94 94 90
44 41 41 42 44 49 50 40 46 40 42 50 58 62 62 57 61 62 62 69 73 75 79 93 91 92 93 88 96 96 97 93 78
39 29 26 26 29 30 32 39 42 51 46 36 54 61 60 56 53 49 48 46 46 45 48 56 75 86 90 90 86 98 98 93 80
35 26 24 25 29 39 43 39 40 45 42 34 42 65 65 58 53 47 45 45 42 43 44 45 48 51 59 79 92 100 97 97 93
30 27 26 27 28 30 36 37 34 30 38 37 42 62 71 57 53 45 39 37 36 35 34 35 39 49 57 63 62 90 98 96 93
32 29 28 28 28 30 33 36 38 34 29 38 45 52 51 61 70 62 46 38 32 29 26 25 28 36 49 56 63 71 78 94 90
34 30 29 29 30 30 32 34 36 38 39 37 45 51 50 53 51 68 64 57 45 34 30 28 26 24 25 30 38 52 65 68 75
Wind_Speed
12 13 12 11 10 8 6 5 5 5 7 9 11 11 8 7 7 5 5 3 5 5 6 6 4 4 6 6 6 5 4 5 7
12 12 12 12 10 8 7 7 6 7 8 11 12 12 8 6 7 5 4 4 4 5 6 5 5 4 3 5 5 5 4 4 4
12 12 12 12 11 9 8 8 8 9 10 11 12 12 9 7 6 6 6 4 4 4 5 5 4 4 4 4 4 3 4 4 4
14 14 13 13 12 12 13 11 9 9 9 11 13 13 11 8 6 4 5 6 4 3 4 4 4 4 3 3 3 3 3 1 1
11 10 14 11 12 14 11 10 11 11 11 11 12 13 11 9 7 3 5 6 5 3 4 4 3 3 4 4 3 3 4 4 2
12 12 12 14 14 14 12 10 11 10 12 12 12 12 11 8 6 2 2 5 4 3 5 4 4 3 3 3 3 3 3 4 5
12 14 15 13 12 12 12 13 11 12 11 12 13 11 9 9 6 4 2 3 5 3 5 4 3 2 2 2 2 2 2 3 4
12 13 15 14 14 13 14 15 15 14 13 13 12 11 9 8 8 7 5 4 6 4 5 5 4 3 3 3 3 4 5 5 5
12 12 13 14 14 14 13 13 18 15 15 14 14 14 12 11 10 10 8 5 8 6 6 6 6 6 5 3 5 5 5 3 1
12 13 14 14 15 14 14 13 16 16 15 15 13 14 13 12 11 9 10 10 6 7 7 8 8 6 4 5 5 3 2 1 2
11 13 14 14 15 15 14 14 17 16 17 18 17 16 16 15 13 11 11 10 8 7 10 9 8 8 5 3 1 1 3 4 6
12 14 15 16 16 15 14 12 13 15 15 18 17 15 14 12 12 12 11 10 8 9 9 12 13 9 6 4 3 1 3 3 4
13 15 16 17 16 15 14 13 13 14 15 16 15 14 13 14 14 13 12 13 9 9 10 11 11 11 8 5 3 2 4 4 6
15 16 17 18 18 18 16 15 13 17 17 16 14 13 12 11 11 10 9 9 9 8 9 8 11 10 9 4 2 3 7 7 9
17 18 18 19 20 19 18 17 16 16 18 19 17 14 12 11 9 9 8 9 9 9 8 10 10 11 10 12 8 6 6 3 3
19 20 20 20 20 20 20 20 20 21 20 22 20 16 12 11 10 9 8 8 8 7 8 9 10 11 12 14 12 6 3 1 6
21 22 22 22 22 23 22 22 23 22 22 19 18 12 10 11 10 9 8 8 7 7 7 7 8 9 11 14 15 10 6 4 3
23 23 23 23 23 24 24 24 24 25 25 22 10 8 7 16 12 10 9 9 8 8 8 7 8 8 9 10 12 12 11 7 6
25 25 25 24 24 25 25 25 24 24 25 25 21 11 10 12 12 14 12 11 10 9 8 8 8 9 9 10 10 11 11 9 5
27 27 26 26 26 26 27 28 28 28 27 27 27 20 16 16 12 18 20 16 13 11 10 9 9 9 9 10 10 10 10 8 6
Wind_Direction
226 222 219 217 211 199 194 185 170 150 128 123 130 136 141 133 119 137 142 82 77 102 110 99 100 118 118 115 127 149 167 123 118
223 223 218 210 203 197 201 190 173 159 149 142 142 149 143 117 117 101 119 98 89 120 117 113 118 113 109 125 138 140 125 133 150
217 209 206 202 200 192 195 194 178 166 157 148 150 159 145 128 97 88 87 82 119 123 129 126 126 126 130 132 135 137 140 152 187
208 207 203 198 174 175 188 191 186 179 162 159 161 164 152 147 126 93 90 89 104 131 147 137 135 139 135 122 120 138 161 187 280
200 196 167 153 180 187 188 185 197 180 170 166 169 171 163 156 141 121 88 100 94 136 148 154 147 133 120 117 124 123 126 147 160
189 189 197 181 163 169 167 174 193 167 178 176 176 177 170 158 146 150 87 112 88 142 153 148 154 141 124 127 124 124 115 113 129
195 192 197 197 188 182 172 159 170 165 167 175 177 178 166 165 162 170 196 131 99 114 152 172 167 144 145 147 134 124 131 157 173
183 184 188 191 190 194 191 182 172 171 172 178 180 189 187 187 194 196 225 145 111 113 136 156 161 153 170 175 143 124 122 128 135
182 183 183 182 181 183 180 180 182 168 168 181 191 192 193 201 207 214 218 194 102 93 117 137 142 150 177 161 144 130 126 144 277
188 188 188 185 184 184 179 171 168 168 176 180 188 194 192 198 204 213 222 225 204 126 120 133 140 146 155 147 153 154 176 267 310
196 188 183 182 182 185 191 177 165 167 181 178 184 192 198 196 199 203 207 209 210 157 120 127 138 127 136 114 179 259 281 288 297
195 189 184 181 178 179 180 169 169 180 168 167 181 198 198 187 181 174 183 190 181 184 163 128 118 125 153 154 150 238 341 338 336
194 190 187 186 187 185 180 178 169 166 166 169 170 170 167 171 178 178 187 185 182 183 184 169 163 152 121 111 66 22 349 5 359
196 192 188 185 187 188 183 177 181 165 160 162 160 160 167 174 180 185 188 180 188 193 184 181 190 191 195 184 106 110 113 94 66
201 197 192 187 186 187 183 179 168 166 160 151 145 142 150 150 154 163 161 169 179 185 178 184 180 173 173 183 121 115 119 115 7
203 198 194 192 192 191 188 183 177 170 167 157 145 140 140 148 150 150 157 161 165 163 169 185 194 195 195 192 183 144 114 6 48
205 202 201 200 199 196 195 195 182 180 176 172 157 146 157 165 163 166 174 177 174 175 175 175 177 177 186 198 207 196 219 134 120
209 207 207 206 205 207 204 203 202 193 188 186 178 165 183 175 178 179 184 186 188 190 189 191 190 188 189 190 197 190 191 199 196
214 213 212 212 209 208 211 210 211 211 205 199 204 201 202 179 182 192 192 193 197 202 201 195 197 201 204 202 203 209 219 223 243
219 219 218 217 216 213 212 214 215 218 218 220 215 214 211 199 188 191 197 197 199 201 205 211 211 210 211 213 217 222 229 237 248